Regional Weather Roundup
Issued by NWS

Home | Current Version | Previous Version | Text Only | Print | Product List | Glossary Off
Versions: 1 2 3 4 5 6 7 8 9 10 11 12 13 14 15 16 17 18 19 20 21 22 23 24 25 26 27 28 29 30 31 32 33 34 35 36 37 38 39 40 41 42 43 44 45 46 47 48 49 50

000
ASUS43 KLMK 130802
RWRKY
KENTUCKY REGIONAL WEATHER ROUNDUP
NATIONAL WEATHER SERVICE LOUISVILLE KY
300 AM EST SAT FEB 13 2016

NOTE "FAIR" INDICATES FEW OR NO CLOUDS BELOW 12,000 FEET
WITH NO SIGNIFICANT WEATHER AND/OR OBSTRUCTIONS TO VISIBILITY.

KYZ001>023-026-027-061>063-070>075-130900-
WESTERN AND SOUTH CENTRAL KENTUCKY

CITY           SKY/WX    TMP DP  RH WIND       PRES   REMARKS
PADUCAH        PTCLDY    22   8  55 N17G23    30.51R WCI   8
HENDERSON      PTCLDY    19   1  45 N8        30.51R WCI   9
OWENSBORO      CLEAR     20   5  52 NW16G23   30.49R WCI   6
HOPKINSVILLE   CLEAR     23  11  61 N10G18    30.45S WCI  12
BOWLING GREEN  CLEAR     24  13  62 NW6       30.44R WCI  17
GLASGOW        NOT AVBL
$$

KYZ024-025-028>034-038-045-046-053-130900-
NORTH CENTRAL KENTUCKY

CITY           SKY/WX    TMP DP  RH WIND       PRES   REMARKS
LOUISVILLE/SDF FLURRIES  22   7  52 NW18G24   30.42R WCI   7
LOUISVILLE/LOU CLOUDY    21   4  47 N13G23    30.42R WCI   9
FORT KNOX      CLEAR     19   5  54 NW12      30.39R WCI   6
$$

KYZ035>037-039>044-047>052-055>060-089>105-130900-
NORTHEAST KENTUCKY

CITY           SKY/WX    TMP DP  RH WIND       PRES   REMARKS
LEXINGTON      CLOUDY    19   4  51 NW13G22   30.35R WCI   6
COVINGTON      PTCLDY    16   6  65 NW13      30.35R WCI   2
FRANKFORT      CLOUDY    20   4  50 NW10G20   30.36R WCI   9
$$

KYZ054-064>069-076>088-106>120-130900-
SOUTHEAST KENTUCKY

CITY           SKY/WX    TMP DP  RH WIND       PRES   REMARKS
JACKSON        LGT SNOW  19  10  68 NW9G20    30.26S WCI   8
LONDON         MOCLDY    21   8  57 NW7       30.30S WCI  12
SOMERSET       NOT AVBL
MIDDLESBORO    NOT AVBL
MONTICELLO     FLURRIES  24  15  68 NW16      30.36R WCI  11
$$




USA.gov is the U.S. government's official web portal to all federal, state and local government web resources and services.